STARLINK-5684 (55453 NORAD) Tracking and Keplerian Element Data

This shows tracking and keplerian element data for the satellite.

Feedback or suggestion? Click here.




ElementValue
Catalog55453
NameSTARLINK-5684
Epoch Orbit830
Epoch Day85.25001157
Epoch Year2023
RAAN76.7709
Inclination43.0008
Eccentricity9.79E-05
Argument of Perigee272.2206
Mean Anonmoly135.0934
Mean Motion15.48910029
Decay Rate-0.00013569
L11 55453U 23015E 23085.25001157 -.00013569 00000+0 -23976-3 0 9997
L22 55453 43.0008 76.7709 0000979 272.2206 135.0934 15.48910029 8306



Live tracking and technical data element details for STARLINK-5684 (NORAD 55453). STARLINK-5684 can be tracked NOW for your location showing map with azimuth and elevation plus other details from your city location.







IsCatalogInMostPopularTable: catalog: 55453, numindb: -1

Insert: records affected: 1


GetName: 55453 STARLINK-5684

Hit Count: inserted at: Tue, 28 Mar 2023 03:27:20 GMT